Location: Musselshell
(46.5176°N, 108.0911°W)
Time: 17:14:18
(UTC+00:00)

FO-29 - Pass Details

Date: 30 June 2022
Orbit: 799 x 1322 km, 98.5° (Epoch: 16 August)

Event Time Altitude Azimuth Distance (km) Brightness Sun altitude
Rises 03:43:27 0° 229° (SW) 4,146 12.9 -5.4°
Reaches altitude 10° 03:48:07 10° 256° (WSW) 3,270 12.7 -6.0°
Maximum altitude 03:51:15 13° 281° (W) 3,098 13.1 -6.4°
Drops below altitude 10° 03:54:27 10° 305° (NW) 3,346 14.0 -6.8°
Sets 03:59:24 0° 332° (NNW) 4,337 14.6 -7.4°
